Overview Statistics Trail Chart Weather Telemetry Raw packets
 

This is the latest recevied weather packets stored in our database for station/object W5GMO. If no packets are shown the sender has not sent any weather packets the latest 10 day(s).

<< 55 56 57 58 59 60 61 >>
Time Temp. Humidity Pressure Rain* Wind** Luminosity Snow
1788264058 26.67° C 1% 1017.5 hPa 0 mm - 80 W/m² -
1788263753 26.67° C 1% 1017.7 hPa 0 mm - 63 W/m² -
1788263450 27.22° C 1% 1017.4 hPa 0 mm - 63 W/m² -
1788263146 27.22° C 1% 1017.5 hPa 0 mm - 59 W/m² -
1788262845 27.22° C 1% 1017.2 hPa 0 mm - 53 W/m² -
1788262543 27.22° C 1% 1017.2 hPa 0 mm - 62 W/m² -
1788262233 26.67° C 1% 1017.2 hPa 0 mm - 68 W/m² -
1788261928 26.67° C 1% 1017.3 hPa 0 mm - 65 W/m² -
1788261623 26.67° C 1% 1017.2 hPa 0 mm - 53 W/m² -
1788261321 26.11° C 1% 1017.2 hPa 0 mm - 47 W/m² -
1788261020 26.11° C 1% 1017.4 hPa 0 mm - 40 W/m² -
1788260716 26.11° C 1% 1017.2 hPa 0 mm - 34 W/m² -
1788260412 25.56° C 1% 1017.1 hPa 0 mm - 27 W/m² -
1788260108 25.56° C 1% 1017.5 hPa 0 mm - 19 W/m² -
1788259807 25.56° C 1% 1017.3 hPa 0 mm - 13 W/m² -
1788259503 25.56° C 1% 1017.2 hPa 0 mm - 8 W/m² -
1788259198 25.56° C 1% 1017.2 hPa 0 mm - 4 W/m² -
1788258892 25.56° C 1% 1017.1 hPa 0 mm - 2 W/m² -
1788258588 25.56° C 1% 1016.9 hPa 0 mm - 1 W/m² -
1788258282 25.56° C 1% 1017 hPa 0 mm - 0 W/m² -
1788257977 25.56° C 1% 1016.9 hPa 0 mm - 0 W/m² -
1788257672 25.56° C 1% 1017.1 hPa 0 mm - 0 W/m² -
1788257372 25.56° C 1% 1017 hPa 0 mm - 0 W/m² -
1788257066 25.56° C 1% 1017 hPa 0 mm - 0 W/m² -
1788256766 25.56° C 1% 1016.8 hPa 0 mm - 0 W/m² -

* Rain latest hour (hover to see other rain measurements)
** Current wind speed in m/s (hover to see current wind gust speed)